Wind_Speed
62 63 65 66 62 62 63 65 64 64 64 66 67 66 66 67 63 63 63 65 64 69 75 74 78 79 81 77 74 67 50 50 54 50 53 56 60 53 53 54 54 53 56
67 66 66 67 69 69 69 68 69 66 67 68 67 68 65 65 68 65 67 69 70 77 77 81 82 84 86 80 82 49 63 56 62 63 59 58 56 62 63 62 59 55 61
70 68 69 70 71 72 72 69 67 69 69 69 67 64 67 70 70 69 70 71 76 78 85 85 82 90 93 84 83 79 79 69 66 62 60 66 68 67 68 70 67 61 58
73 71 72 75 75 75 73 74 72 72 73 71 69 65 67 71 72 72 71 77 82 84 80 84 94 97 91 88 86 88 85 73 76 65 68 70 70 82 93 94 87 76 63
75 74 73 74 74 75 76 75 71 71 74 72 72 68 70 70 73 78 81 80 83 86 93 100 98 96 90 90 91 94 83 79 77 80 83 88 92 98 99 98 87 70 59
76 74 75 76 76 74 74 73 72 72 73 73 74 71 77 78 82 84 86 89 96 99 96 99 96 94 94 95 96 98 84 83 86 90 88 94 93 91 80 77 63 52 49
76 75 77 77 77 76 78 79 79 77 75 76 76 76 78 83 89 90 94 95 97 95 96 95 95 96 99 99 103 100 96 89 96 96 97 98 94 70 62 64 52 41 49
77 76 78 79 80 80 80 78 80 81 83 85 83 83 80 84 87 86 91 90 95 95 93 93 98 97 97 108 101 100 96 101 99 92 92 83 68 58 55 52 46 40 46
84 82 75 74 75 76 76 79 82 83 83 82 84 87 83 87 88 92 90 94 93 95 94 97 98 99 100 102 104 97 97 100 88 89 84 71 63 57 51 45 39 36 38
81 76 76 79 79 81 79 86 83 80 76 85 83 85 90 88 88 91 96 99 97 97 101 101 102 100 106 99 97 101 100 94 89 82 70 58 53 50 44 39 35 34 38
81 67 67 78 72 79 77 73 81 80 80 79 85 90 92 91 93 93 97 100 100 102 103 103 105 102 99 97 98 96 93 86 83 73 63 51 46 43 37 36 35 35 39
86 85 85 84 69 81 87 81 74 86 86 91 95 97 97 100 102 103 104 103 106 108 109 109 106 102 98 96 92 91 86 84 74 65 56 44 38 35 32 35 35 35 37
88 89 91 91 89 98 100 102 103 106 105 102 102 103 105 108 107 108 111 110 109 110 110 105 101 99 95 90 86 84 79 75 64 58 47 36 30 30 30 32 33 33 35
89 95 99 95 95 93 97 101 100 102 106 110 108 109 111 113 110 113 114 114 106 104 103 100 95 90 86 86 82 79 68 62 58 51 41 32 27 25 28 29 30 30 33
97 98 106 104 100 104 107 109 111 109 108 112 118 120 116 113 114 110 108 108 103 103 96 93 87 85 86 78 71 63 59 54 52 44 38 30 26 22 23 27 27 29 32
108 113 109 107 111 117 118 117 115 113 115 117 119 119 119 114 112 111 106 102 97 92 87 83 83 80 77 69 60 51 48 47 45 39 37 31 24 19 22 24 27 31 33
112 112 111 107 119 116 116 119 118 113 118 115 120 120 119 115 107 105 103 97 91 84 78 77 73 72 66 57 51 44 42 41 39 35 34 30 22 18 19 24 30 32 35
110 112 109 109 113 114 108 112 116 117 117 116 115 116 114 109 103 100 93 86 78 74 69 67 61 53 52 48 42 38 35 37 36 32 31 29 23 19 20 23 29 33 36
89 93 98 99 101 104 105 109 113 112 111 112 111 109 103 99 91 81 71 68 67 65 61 51 48 45 44 39 35 31 33 34 35 29 26 25 23 21 19 21 25 31 36
62 63 72 77 84 90 94 97 97 96 97 97 95 90 84 73 65 60 58 56 55 53 50 44 41 38 36 33 28 29 32 33 31 26 24 22 20 20 20 21 24 29 35
45 51 52 53 58 60 63 67 70 72 73 70 67 64 60 57 50 48 50 48 46 43 39 36 33 33 31 26 25 28 30 30 27 24 21 19 16 17 19 22 25 30 35
44 49 52 55 57 58 60 60 60 59 56 54 50 50 48 44 43 42 40 38 35 33 31 29 29 27 24 22 24 26 28 28 25 21 18 16 14 15 16 20 26 32 37
37 41 45 48 51 53 52 51 48 45 46 46 43 39 37 37 36 34 32 30 28 26 25 24 22 21 20 20 22 24 26 25 22 19 15 14 15 14 15 20 27 34 38
42 46 49 52 53 53 52 49 46 44 42 40 37 34 32 30 28 26 24 23 21 21 19 18 17 17 16 17 21 23 24 22 18 16 15 14 16 17 16 21 30 35 38
47 48 49 50 50 48 45 41 38 35 34 32 29 26 24 22 20 18 18 16 16 15 15 15 15 15 15 16 18 20 20 18 16 15 14 15 17 19 20 25 31 35 37
45 45 43 42 40 39 34 32 30 28 27 25 22 20 17 15 14 14 14 15 13 13 13 13 14 15 15 15 16 17 17 15 14 14 14 15 16 19 23 27 32 33 36
Wind_Direction
271 274 277 278 278 278 276 277 280 281 282 283 286 290 292 295 292 296 293 296 300 300 299 301 305 305 311 309 313 315 315 314 314 310 306 305 306 295 291 281 271 261 250
271 273 272 274 277 278 280 282 283 281 280 281 286 289 290 291 292 295 295 297 296 295 296 296 301 305 309 307 313 309 315 313 313 310 302 304 303 297 293 296 283 266 258
269 271 272 273 273 276 278 279 278 278 280 282 284 288 284 287 287 292 291 290 289 291 293 297 297 306 307 307 311 320 321 313 316 305 303 303 298 300 299 293 292 283 264
267 266 266 269 272 274 275 275 278 278 279 281 282 285 283 280 281 287 289 284 284 291 289 290 300 302 306 307 313 319 317 314 317 311 304 304 312 312 306 303 295 285 271
264 263 265 268 270 272 274 275 276 276 277 278 282 284 281 281 282 285 284 284 284 284 288 295 298 301 305 311 316 314 318 317 315 318 313 316 311 305 301 294 283 278 261
263 266 267 266 267 270 271 272 273 275 275 277 280 277 274 276 275 278 282 283 286 292 294 294 297 304 306 310 314 319 317 316 316 316 311 308 303 303 301 290 287 270 254
262 265 264 265 266 269 271 273 274 276 277 279 279 279 275 272 275 282 283 285 286 289 293 296 301 308 309 312 316 316 311 310 310 310 307 302 303 294 287 283 283 262 239
261 262 264 265 268 271 273 276 277 278 280 279 279 279 280 279 282 283 282 284 288 293 296 301 305 308 309 310 311 309 311 308 307 305 300 303 303 295 289 281 275 258 238
265 267 267 267 269 270 271 271 272 274 275 277 278 280 280 283 283 284 283 288 291 295 299 302 305 306 307 308 307 309 306 307 301 299 301 305 302 294 288 280 267 249 232
260 263 264 265 266 268 270 274 274 275 271 275 275 278 282 283 285 286 288 293 296 297 299 301 303 304 304 306 305 301 302 300 299 299 299 301 298 291 284 274 257 241 230
255 255 262 258 264 267 270 263 268 261 269 268 274 276 278 280 284 285 287 291 293 295 298 300 301 305 303 304 304 300 298 301 302 300 304 301 294 285 278 263 247 236 225
253 253 253 259 256 258 256 262 262 261 266 271 274 276 277 280 283 287 289 290 292 296 297 299 302 302 300 301 299 298 303 305 301 304 301 299 289 283 272 253 241 233 220
258 255 254 251 253 257 259 261 265 268 269 271 274 275 277 283 285 287 288 291 294 297 299 299 299 300 298 297 298 300 303 302 300 301 302 298 293 283 263 248 237 228 216
250 251 253 255 256 253 256 264 267 268 270 271 275 278 280 281 284 288 292 294 295 296 295 296 296 297 299 299 300 304 303 299 301 303 302 301 298 282 263 247 236 226 212
241 248 252 255 255 254 258 260 263 267 268 274 278 278 280 282 284 289 289 291 291 292 292 294 293 296 296 298 301 302 298 300 303 303 303 307 295 275 260 242 228 220 204
243 247 251 253 253 257 258 261 265 270 272 273 274 277 280 282 283 286 290 290 292 291 290 293 294 294 294 298 296 296 298 301 301 306 307 302 289 271 252 236 225 217 202
244 245 250 252 255 257 260 264 267 268 268 272 276 278 278 280 286 287 289 289 289 287 290 290 291 292 296 295 295 298 299 300 303 304 293 288 282 265 247 230 225 219 203
243 248 250 251 255 260 262 263 265 266 268 271 274 277 280 284 286 288 287 286 288 290 287 285 288 296 293 292 298 298 299 300 299 291 283 281 276 258 242 227 220 215 202
250 252 254 253 256 259 260 262 265 268 271 271 274 277 280 283 283 283 286 287 285 280 280 285 289 289 287 295 296 301 299 294 289 284 280 273 267 260 247 227 213 207 198
254 257 257 257 258 260 263 267 271 271 272 274 276 278 278 279 282 281 281 279 279 279 280 282 282 282 288 291 297 297 290 283 283 281 274 268 258 251 241 228 211 202 196
269 269 268 268 265 266 267 266 269 273 271 273 275 275 280 281 277 277 277 278 277 277 276 275 277 281 284 286 288 284 281 277 277 272 267 263 253 244 232 220 205 197 191
265 264 268 268 268 270 274 276 278 278 278 282 281 279 277 277 276 276 276 275 275 273 273 274 276 277 278 278 277 276 272 272 270 265 259 257 242 235 225 209 196 189 186
288 286 283 282 281 282 285 285 285 284 282 282 281 280 281 279 276 274 272 269 267 268 269 275 275 273 271 271 270 271 267 267 265 259 249 241 228 218 212 199 187 183 182
292 292 291 291 292 292 292 294 295 292 289 286 283 278 273 272 271 265 261 260 264 270 275 274 267 268 269 266 261 264 261 262 257 249 237 228 217 207 197 190 182 180 179
296 296 296 296 294 293 294 293 289 285 281 279 277 276 272 266 262 259 262 267 275 270 272 266 262 260 260 259 257 259 256 254 246 239 225 217 212 202 191 184 180 180 179
302 301 299 296 295 294 296 291 287 282 280 277 272 266 261 260 253 257 264 270 268 267 270 266 258 253 252 253 251 250 249 240 232 226 215 206 204 198 188 186 180 179 178
Height
10743 10743 10740 10737 10739 10741 10740 10740 10738 10736 10733 10732 10729 10727 10723 10722 10720 10718 10714 10711 10706 10702 10699 10694 10692 10688 10683 10677 10671 10665 10656 10648 10643 10631 10628 10625 10623 10624 10623 10622 10622 10620 10619
10729 10729 10726 10725 10724 10724 10725 10724 10724 10721 10719 10717 10715 10712 10710 10707 10703 10702 10698 10694 10691 10688 10682 10678 10675 10669 10664 10660 10656 10650 10646 10637 10632 10626 10615 10609 10605 10603 10602 10595 10596 10597 10596
10713 10713 10713 10710 10709 10710 10709 10709 10707 10705 10702 10702 10699 10697 10693 10690 10686 10685 10682 10679 10674 10670 10664 10659 10653 10650 10647 10640 10635 10627 10621 10616 10610 10605 10599 10594 10586 10579 10573 10568 10566 10566 10568
10696 10696 10696 10695 10695 10694 10693 10692 10692 10688 10687 10685 10685 10683 10680 10676 10673 10669 10665 10660 10657 10653 10647 10642 10637 10631 10628 10622 10614 10607 10602 10594 10586 10580 10573 10567 10560 10559 10549 10540 10535 10534 10536
10676 10678 10678 10679 10679 10678 10678 10676 10674 10673 10671 10670 10668 10665 10662 10659 10653 10651 10647 10644 10640 10635 10631 10627 10621 10612 10607 10600 10591 10588 10575 10568 10559 10553 10547 10540 10536 10532 10523 10505 10498 10501 10505
10656 10659 10661 10660 10661 10660 10659 10658 10659 10657 10655 10654 10652 10650 10646 10642 10635 10633 10632 10627 10619 10616 10611 10607 10601 10595 10585 10579 10571 10559 10551 10543 10537 10532 10526 10519 10508 10501 10486 10475 10475 10478 10478
10641 10643 10642 10642 10644 10643 10640 10638 10638 10639 10638 10636 10634 10633 10629 10624 10619 10619 10611 10607 10600 10600 10595 10586 10580 10570 10557 10551 10544 10536 10532 10527 10517 10507 10498 10487 10476 10467 10456 10449 10452 10457 10457
10623 10625 10624 10626 10625 10624 10623 10623 10618 10617 10614 10611 10610 10609 10611 10605 10602 10598 10591 10587 10582 10577 10572 10567 10557 10550 10542 10531 10527 10516 10508 10502 10497 10484 10468 10454 10444 10439 10432 10429 10432 10436 10439
10603 10606 10611 10608 10607 10608 10607 10603 10599 10597 10593 10591 10589 10584 10590 10587 10580 10575 10570 10567 10566 10556 10550 10543 10539 10530 10524 10516 10505 10495 10484 10476 10466 10455 10441 10431 10424 10416 10412 10410 10414 10417 10423
10588 10590 10592 10589 10590 10588 10591 10578 10579 10576 10570 10568 10569 10567 10562 10562 10560 10556 10548 10544 10542 10536 10528 10522 10517 10513 10502 10493 10484 10475 10464 10452 10439 10430 10419 10410 10401 10395 10393 10393 10397 10401 10410
10572 10576 10570 10569 10576 10568 10565 10558 10559 10557 10553 10549 10547 10546 10546 10543 10539 10536 10531 10525 10521 10516 10511 10502 10495 10492 10481 10470 10461 10450 10440 10429 10417 10405 10398 10392 10384 10379 10377 10377 10381 10387 10397
10553 10557 10556 10553 10552 10547 10539 10540 10533 10533 10533 10531 10526 10526 10526 10522 10520 10518 10512 10507 10500 10496 10490 10481 10472 10465 10457 10447 10437 10427 10418 10406 10394 10385 10381 10374 10369 10364 10363 10364 10368 10376 10385
10527 10533 10530 10527 10531 10518 10516 10517 10516 10515 10514 10512 10508 10505 10504 10501 10499 10494 10490 10485 10482 10474 10466 10458 10451 10444 10434 10424 10416 10405 10395 10386 10377 10369 10363 10359 10353 10351 10352 10353 10358 10366 10375
10492 10495 10501 10507 10505 10502 10497 10490 10492 10491 10492 10486 10488 10484 10480 10477 10476 10470 10467 10461 10459 10454 10447 10437 10430 10421 10412 10404 10394 10387 10379 10370 10361 10354 10347 10344 10339 10341 10342 10344 10350 10358 10368
10475 10471 10477 10482 10481 10477 10473 10470 10468 10468 10469 10468 10457 10455 10457 10455 10453 10453 10447 10441 10437 10433 10423 10415 10408 10400 10391 10385 10378 10371 10364 10354 10347 10341 10336 10331 10331 10333 10334 10338 10344 10351 10361
10451 10447 10456 10458 10456 10451 10450 10450 10454 10455 10448 10444 10439 10435 10434 10434 10431 10429 10425 10418 10413 10406 10399 10392 10386 10379 10372 10367 10361 10355 10348 10340 10336 10330 10325 10326 10326 10327 10329 10332 10338 10345 10355
10425 10430 10428 10434 10427 10437 10437 10432 10433 10433 10421 10423 10413 10413 10412 10412 10411 10405 10401 10394 10390 10384 10378 10372 10367 10361 10356 10349 10347 10341 10334 10329 10325 10323 10323 10322 10321 10322 10325 10329 10332 10339 10351
10408 10410 10417 10417 10409 10409 10412 10410 10404 10404 10400 10399 10397 10392 10390 10390 10387 10383 10377 10371 10367 10362 10359 10355 10348 10343 10340 10335 10332 10327 10322 10319 10317 10319 10317 10314 10315 10317 10320 10323 10327 10334 10344
10399 10397 10396 10394 10391 10388 10386 10384 10383 10381 10379 10377 10376 10375 10373 10370 10368 10362 10355 10350 10346 10343 10339 10334 10332 10330 10326 10321 10319 10315 10313 10312 10312 10311 10309 10308 10309 10310 10313 10317 10322 10328 10338
10380 10378 10376 10375 10372 10369 10366 10364 10363 10361 10358 10355 10352 10351 10349 10348 10345 10342 10336 10330 10327 10325 10324 10321 10318 10316 10313 10311 10308 10307 10307 10306 10304 10303 10302 10302 10302 10303 10306 10310 10316 10322 10331
10365 10361 10357 10355 10352 10349 10346 10344 10341 10338 10336 10335 10333 10331 10328 10326 10324 10321 10316 10311 10311 10310 10309 10307 10305 10304 10303 10300 10300 10301 10299 10298 10297 10297 10296 10295 10296 10297 10300 10304 10310 10316 10326
10348 10345 10341 10337 10333 10329 10325 10323 10321 10320 10317 10315 10313 10311 10309 10306 10303 10300 10300 10298 10297 10296 10295 10295 10295 10293 10292 10292 10293 10293 10291 10290 10290 10290 10290 10289 10290 10292 10295 10299 10305 10312 10321
10334 10330 10326 10321 10316 10311 10307 10304 10302 10301 10299 10296 10294 10291 10289 10287 10287 10287 10287 10287 10286 10286 10285 10285 10283 10283 10284 10285 10285 10285 10284 10284 10284 10284 10285 10285 10285 10287 10291 10296 10302 10309 10316
10321 10316 10310 10304 10298 10293 10288 10285 10282 10280 10277 10277 10275 10275 10275 10275 10275 10277 10277 10277 10276 10275 10274 10275 10276 10276 10277 10277 10278 10277 10277 10277 10278 10279 10280 10281 10282 10285 10289 10294 10300 10306 10312
10308 10301 10295 10288 10282 10277 10274 10271 10268 10267 10265 10263 10262 10262 10263 10265 10266 10266 10266 10265 10266 10267 10268 10269 10269 10270 10271 10272 10271 10271 10270 10272 10272 10274 10276 10277 10279 10283 10287 10292 10298 10303 10310
10296 10289 10283 10276 10270 10265 10262 10259 10256 10254 10252 10252 10252 10254 10255 10256 10257 10258 10258 10259 10260 10260 10261 10262 10263 10264 10265 10265 10265 10265 10265 10267 10268 10270 10272 10275 10277 10281 10286 10290 10295 10300 10307